Regional Weather Roundup
Issued by NWS Portland, ME

Home | Current Version | Previous Version | Text Only | Print | Product List | Glossary On
Versions: 1 2 3 4 5 6 7 8 9 10 11 12 13 14 15 16 17 18 19 20 21 22 23 24 25 26 27 28 29 30 31 32 33 34 35 36 37 38 39 40 41 42 43 44 45 46 47 48 49 50
000
ASUS41 KGYX 251610
RWRGYX
WEATHER ROUNDUP FOR MAINE AND NEW HAMPSHIRE
NATIONAL WEATHER SERVICE GRAY ME
1200 PM EDT FRI JUL 25 2014

MEZ002-005-006-010-012-015-018-020-021-024-026-027-029-251700-
MAINE

CITY           SKY/WX    TMP DP  RH WIND       PRES   REMARKS
PORTLAND       MOSUNNY   76  56  49 NW8       29.94F
SANFORD        SUNNY     79  54  41 W8        29.94F
BAR HARBOR     SUNNY     75  59  57 W7        29.89S
WISCASSET      SUNNY     76  58  53 MISG      29.93F
ROCKLAND       SUNNY     73  61  64 S5        29.89F
FRYEBURG       SUNNY     77  54  44 VRB5      29.94F
LEWISTONAUBURN SUNNY     75  54  46 NW12G20   29.94F
AUGUSTA        SUNNY     75  55  49 W9        29.93S
WATERVILLE     MOSUNNY   75  55  50 W8        29.88S
BANGOR         MOSUNNY   75  55  49 W5        29.90S
GREENVILLE       N/A     72  52  49 NW12G17   29.90F
MILLINOCKET    SUNNY     76  53  44 NW12G17   29.88F
HOULTON        SUNNY     74  52  46 VRB3      29.84F
PRESQUE ISLE   MOSUNNY   73  48  40 W3        29.85F
FRENCHVILLE    MOSUNNY   71  46  40 W14       29.84S
CARIBOU        MOSUNNY   74  53  48 VRB7      29.84S
$$

NHZ002-005-008-009-011-012-014-251700-
NEW HAMPSHIRE

CITY           SKY/WX    TMP DP  RH WIND       PRES   REMARKS
PORTSMOUTH     MOSUNNY   77  58  51 SW6       29.95F
ROCHESTER      SUNNY     76  55  48 VRB7      29.95F
NASHUA         SUNNY     77  55  46 NW10      29.98F
MANCHESTER     MOSUNNY   77  54  44 VRB3      29.96F
CONCORD        SUNNY     76  55  48 W8        29.97F
LACONIA          N/A     73  54  49 SW6       29.96F
PLYMOUTH       FAIR      74  55  51 W8        29.96F
BERLIN         SUNNY     74  55  51 NW8       29.96F
WHITEFIELD     SUNNY     72  55  55 SW3       29.97F
JAFFREY        SUNNY     73  53  49 W8        30.01F
LEBANON        SUNNY     75  55  49 CALM      29.97F
MT WASHINGTON  FOG       46  46 100 W36G45      N/A  VSB 1/16
$$

VTZ005-007-008-251700-
VERMONT

CITY           SKY/WX    TMP DP  RH WIND       PRES   REMARKS
ST JOHNSBURY     N/A     74  54  49 MISG      29.94F
MONTPELIER     SUNNY     73  54  51 W10       30.02F
BURLINGTON     SUNNY     75  55  49 SW8       29.96F
$$

MAZ007-012-024-CTZ003-RIZ002-NYZ038-NYZ072-251700-
SOUTHERN NEW ENGLAND AND NY

CITY           SKY/WX    TMP DP  RH WIND       PRES   REMARKS
BOSTON         SUNNY     74  52  46 SE7       29.97F
WORCESTER      SUNNY     72  53  51 NW8       30.01F
NANTUCKET      MOSUNNY   73  60  63 N7        29.96F
PROVIDENCE     MOSUNNY   77  53  43 VRB5      29.98F
HARTFORD       MOSUNNY   77  54  44 NE8       29.99F
ALBANY         MOSUNNY   75  56  51 VRB3      30.02F
NEW YORK CITY  MOSUNNY   77  54  44 VRB6      30.01S
$$

ANZ081-ANZ082-ANZ150-NHZ014-MEZ023>029-251700-
COASTAL MARINE OBSERVATIONS

STATION/POSITION TIME  TEMP    WIND        PRES    WAVE
                       AIR SEA DIR/SP/G            HT/PER
                 (UTC) (F)     (DEG/KT/KT) (MB)    (FT/S)
MOUNT DESERT ROC 1600   59                 1012.5F
MATINICUS ROCK   1600          250/  9/ 10 1012.7F
PORTLAND WX BUOY 1600   65 65  210/ 10/ 12 1013.6F   1/10
WELLS            1600   75 59  320/  6/ 10 1013.2S
ISLE OF SHOALS   1600   69     210/  8/  8 1014.0F
JEFFREYS LEDGE   1600      65                N/A     2/ 9
CASHES LEDGE BUO 1600   66 66  VRB  8/ 10  1013.1S   2/ 9
$$

.............KEY..............
   WCI - WIND CHILL
   TC  - TEMPERATURE IN CELSIUS
   VSB - VISIBILITY IN MILES
   HX  - HEAT INDEX
   FAIR- INDICATES FEW OR NO CLOUDS BELOW 12,000 FT, WITH NO
         SIGNIFICANT WEATHER AND/OR OBSTRUCTIONS TO VISIBILITY.




USA.gov is the U.S. government's official web portal to all federal, state and local government web resources and services.